When you browse on this site, cookies collect data to enhance your experience and personalize the content and advertising you see.
Visit our Privacy Policy to learn more. By continuing to use the site, you agree to this use of cookies and data.
  • In Romania
  • List of Countries
  • For 7 days
  • Water Temperature
  • Satellite Maps
  • Weather Map
  • Weather Widgets
  • user-avatar
    Login

    Hourly Weather Cambridge

    Today, 22 April, Monday

    Time Temperature Precipitation Wind Pressure Humidity
    00:00 +7°C° 0 mm 3 mps 758 mmHg 60%
    01:00 +7°C° 0 mm 2 mps 758 mmHg 60%
    02:00 +7°C° 0 mm 2 mps 757 mmHg 60%
    03:00 +6°C° 0 mm 2 mps 757 mmHg 61%
    04:00 +7°C° 0 mm 2 mps 756 mmHg 65%
    05:00 +8°C° 0 mm 2 mps 756 mmHg 69%
    06:00 +9°C° 0 mm 2 mps 755 mmHg 76%
    07:00 +12°C° 0 mm 3 mps 755 mmHg 70%
    08:00 +16°C° 0 mm 3 mps 755 mmHg 65%
    09:00 +19°C° 0 mm 4 mps 754 mmHg 59%
    10:00 +20°C° 0 mm 5 mps 754 mmHg 55%
    11:00 +21°C° 0 mm 5 mps 753 mmHg 51%
    12:00 +22°C° 0 mm 6 mps 753 mmHg 48%
    13:00 +22°C° 0 mm 6 mps 752 mmHg 50%
    14:00 +22°C° 0 mm 6 mps 752 mmHg 52%
    15:00 +21°C° 0 mm 6 mps 751 mmHg 54%
    16:00 +20°C° 0 mm 5 mps 751 mmHg 59%
    17:00 +19°C° 0 mm 4 mps 751 mmHg 65%
    18:00 +18°C° 0 mm 4 mps 750 mmHg 70%
    19:00 +16°C° 0 mm 3 mps 750 mmHg 71%
    20:00 +14°C° 0 mm 3 mps 750 mmHg 71%
    21:00 +12°C° 0 mm 3 mps 750 mmHg 72%
    22:00 +12°C° 0 mm 3 mps 750 mmHg 72%
    23:00 +12°C° 0 mm 3 mps 750 mmHg 72%

    Tomorrow, 23 April, Tuesday

    Time Temperature Precipitation Wind Pressure Humidity
    00:00 +11°C° 0 mm 3 mps 749 mmHg 72%
    01:00 +11°C° 0 mm 3 mps 749 mmHg 75%
    02:00 +11°C° 0 mm 4 mps 749 mmHg 77%
    03:00 +11°C° 0 mm 4 mps 748 mmHg 79%
    04:00 +11°C° 0 mm 4 mps 748 mmHg 80%
    05:00 +11°C° 0 mm 4 mps 748 mmHg 81%
    06:00 +11°C° 0 mm 4 mps 748 mmHg 81%
    07:00 +12°C° 0 mm 5 mps 748 mmHg 77%
    08:00 +14°C° 0 mm 5 mps 748 mmHg 72%
    09:00 +16°C° 0 mm 5 mps 748 mmHg 67%
    10:00 +16°C° 0 mm 5 mps 748 mmHg 64%
    11:00 +17°C° 0 mm 6 mps 748 mmHg 61%
    12:00 +19°C° 0 mm 6 mps 747 mmHg 58%
    13:00 +19°C° 0 mm 6 mps 747 mmHg 59%
    14:00 +19°C° 0 mm 6 mps 747 mmHg 59%
    15:00 +19°C° 0 mm 6 mps 746 mmHg 59%
    16:00 +17°C° 0 mm 5 mps 746 mmHg 64%
    17:00 +17°C° 0 mm 4 mps 746 mmHg 69%
    18:00 +16°C° 0 mm 3 mps 746 mmHg 73%
    19:00 +14°C° 0 mm 3 mps 745 mmHg 78%
    20:00 +12°C° 0 mm 3 mps 745 mmHg 83%
    21:00 +11°C° 0 mm 3 mps 745 mmHg 88%
    22:00 +11°C° 0 mm 3 mps 745 mmHg 89%
    23:00 +11°C° 0 mm 3 mps 745 mmHg 90%

    Day after tomorrow, 24 April, Wednesday

    Time Temperature Precipitation Wind Pressure Humidity
    00:00 +11°C° 0 mm 3 mps 744 mmHg 91%
    01:00 +11°C° 0 mm 3 mps 744 mmHg 92%
    02:00 +10°C° 0 mm 3 mps 743 mmHg 94%
    03:00 +10°C° 0 mm 3 mps 743 mmHg 95%
    04:00 +11°C° 0 mm 3 mps 743 mmHg 94%
    05:00 +11°C° 0 mm 3 mps 743 mmHg 93%
    06:00 +12°C° 0 mm 3 mps 742 mmHg 92%
    07:00 +13°C° 0.2 mm 5 mps 743 mmHg 88%
    08:00 +14°C° 0.2 mm 6 mps 743 mmHg 85%
    09:00 +16°C° 0.2 mm 7 mps 744 mmHg 82%
    10:00 +14°C° 0.2 mm 6 mps 744 mmHg 82%
    11:00 +13°C° 0.2 mm 6 mps 745 mmHg 82%
    12:00 +10°C° 0.2 mm 6 mps 745 mmHg 82%
    13:00 +13°C° 0.1 mm 6 mps 746 mmHg 74%
    14:00 +14°C° 0.1 mm 6 mps 746 mmHg 66%
    15:00 +16°C° 0.1 mm 6 mps 746 mmHg 58%
    16:00 +15°C° 0 mm 5 mps 746 mmHg 62%
    17:00 +14°C° 0 mm 5 mps 746 mmHg 66%
    18:00 +13°C° 0 mm 4 mps 746 mmHg 70%
    19:00 +12°C° 0 mm 4 mps 747 mmHg 74%
    20:00 +10°C° 0 mm 5 mps 747 mmHg 78%
    21:00 +9°C° 0 mm 5 mps 747 mmHg 82%
    22:00 +9°C° 0 mm 6 mps 747 mmHg 82%
    23:00 +9°C° 0 mm 6 mps 747 mmHg 83%

    25 April, Thursday

    Time Temperature Precipitation Wind Pressure Humidity
    00:00 +9°C° 0 mm 7 mps 746 mmHg 83%
    01:00 +9°C° 0 mm 7 mps 746 mmHg 83%
    02:00 +9°C° 0 mm 7 mps 745 mmHg 83%
    03:00 +10°C° 0 mm 8 mps 745 mmHg 83%
    04:00 +10°C° 0.2 mm 7 mps 745 mmHg 84%
    05:00 +10°C° 0.2 mm 7 mps 745 mmHg 85%
    06:00 +10°C° 0.2 mm 7 mps 745 mmHg 87%
    07:00 +10°C° 0.1 mm 7 mps 745 mmHg 83%
    08:00 +11°C° 0.1 mm 7 mps 746 mmHg 79%
    09:00 +11°C° 0.1 mm 8 mps 746 mmHg 76%
    10:00 +12°C° 0.2 mm 8 mps 746 mmHg 71%
    11:00 +12°C° 0.2 mm 9 mps 746 mmHg 66%
    12:00 +13°C° 0.2 mm 10 mps 746 mmHg 62%
    13:00 +12°C° 0.2 mm 11 mps 746 mmHg 68%
    14:00 +11°C° 0.2 mm 11 mps 746 mmHg 74%
    15:00 +8°C° 0.2 mm 12 mps 746 mmHg 80%
    16:00 +9°C° 0.2 mm 10 mps 747 mmHg 78%
    17:00 +10°C° 0.2 mm 9 mps 748 mmHg 76%
    18:00 +11°C° 0.2 mm 8 mps 749 mmHg 74%
    19:00 +10°C° 0 mm 7 mps 750 mmHg 76%
    20:00 +9°C° 0 mm 7 mps 751 mmHg 79%
    21:00 +8°C° 0 mm 6 mps 752 mmHg 81%
    22:00 +8°C° 0 mm 5 mps 752 mmHg 82%
    23:00 +8°C° 0 mm 5 mps 753 mmHg 83%

    26 April, Friday

    Time Temperature Precipitation Wind Pressure Humidity
    00:00 +8°C° 0 mm 4 mps 753 mmHg 84%
    01:00 +7°C° 0 mm 4 mps 754 mmHg 86%
    02:00 +7°C° 0 mm 4 mps 754 mmHg 87%
    03:00 +8°C° 0 mm 3 mps 754 mmHg 89%
    04:00 +7°C° 0 mm 4 mps 754 mmHg 89%
    05:00 +7°C° 0 mm 4 mps 754 mmHg 90%
    06:00 +7°C° 0 mm 4 mps 755 mmHg 90%
    07:00 +8°C° 0 mm 4 mps 755 mmHg 83%
    08:00 +11°C° 0 mm 4 mps 755 mmHg 76%
    09:00 +13°C° 0 mm 4 mps 755 mmHg 69%
    10:00 +13°C° 0 mm 4 mps 755 mmHg 65%
    11:00 +14°C° 0 mm 4 mps 755 mmHg 60%
    12:00 +16°C° 0 mm 3 mps 755 mmHg 56%
    13:00 +17°C° 0 mm 3 mps 756 mmHg 55%
    14:00 +17°C° 0 mm 3 mps 756 mmHg 55%
    15:00 +17°C° 0 mm 2 mps 756 mmHg 54%
    16:00 +16°C° 0.3 mm 3 mps 757 mmHg 63%
    17:00 +14°C° 0.3 mm 4 mps 757 mmHg 73%
    18:00 +13°C° 0.3 mm 5 mps 758 mmHg 82%
    19:00 +10°C° 0 mm 6 mps 758 mmHg 83%
    20:00 +8°C° 0 mm 6 mps 759 mmHg 85%
    21:00 +7°C° 0 mm 6 mps 759 mmHg 86%
    22:00 +7°C° 0 mm 6 mps 759 mmHg 86%
    23:00 +7°C° 0 mm 6 mps 759 mmHg 87%

    27 April, Saturday

    Time Temperature Precipitation Wind Pressure Humidity
    00:00 +7°C° 0 mm 6 mps 759 mmHg 87%
    01:00 +7°C° 0 mm 6 mps 760 mmHg 86%
    02:00 +8°C° 0 mm 6 mps 760 mmHg 86%
    03:00 +9°C° 0 mm 6 mps 760 mmHg 85%
    04:00 +8°C° 0 mm 6 mps 760 mmHg 85%
    05:00 +6°C° 0 mm 5 mps 761 mmHg 85%
    06:00 +5°C° 0 mm 5 mps 761 mmHg 85%
    07:00 +7°C° 0 mm 6 mps 761 mmHg 78%
    08:00 +8°C° 0 mm 6 mps 762 mmHg 70%
    09:00 +10°C° 0 mm 7 mps 762 mmHg 63%
    10:00 +10°C° 0 mm 7 mps 762 mmHg 63%
    11:00 +11°C° 0 mm 7 mps 762 mmHg 64%
    12:00 +11°C° 0 mm 7 mps 762 mmHg 64%
    13:00 +11°C° 0.3 mm 7 mps 762 mmHg 70%
    14:00 +10°C° 0.3 mm 7 mps 761 mmHg 77%
    15:00 +10°C° 0.3 mm 8 mps 761 mmHg 84%
    16:00 +11°C° 0.2 mm 8 mps 760 mmHg 86%
    17:00 +11°C° 0.2 mm 8 mps 760 mmHg 88%
    18:00 +12°C° 0.2 mm 8 mps 759 mmHg 90%
    19:00 +12°C° 0.1 mm 8 mps 760 mmHg 90%
    20:00 +12°C° 0.1 mm 8 mps 760 mmHg 90%
    21:00 +12°C° 0.1 mm 7 mps 761 mmHg 91%
    22:00 +11°C° 0.2 mm 7 mps 761 mmHg 91%
    23:00 +11°C° 0.2 mm 6 mps 761 mmHg 92%
    Show more